Regional Weather Roundup
Issued by NWS

Home | Current Version | Previous Version | Text Only | Print | Product List | Glossary On
Versions: 1 2 3 4 5 6 7 8 9 10 11 12 13 14 15 16 17 18 19 20 21 22 23 24 25 26 27 28 29 30 31 32 33 34 35 36 37 38 39 40 41 42 43 44 45 46 47 48 49 50
140
ASUS44 KJAN 210703
RWRMS

MISSISSIPPI HOURLY WEATHER ROUNDUP
NATIONAL WEATHER SERVICE JACKSON MS
200 AM CDT TUE OCT 21 2014

NOTE: "FAIR: INDICATES FEW OR NO CLOUDS BELOW 12,000 FEET WITH NO
SIGNIFICANT WEATHER AND/OR OBSTRUCTIONS TO VISIBILITY.

MSZ001>002-007>008-010>013-018>021-025>028-034>036-210800-
NORTHWEST MISSISSIPPI

CITY           SKY/WX    TMP DP  RH WIND       PRES   REMARKS
CLARKSDALE     FAIR      55  55 100 CALM      30.05S
CLEVELAND      FAIR      56  55  99 CALM      30.04S
GREENWOOD      CLEAR     51  49  92 CALM      30.05R
GREENVILLE     CLEAR     54  52  93 CALM      30.04S
GRENADA          N/A    N/A N/A N/A MISG        N/A
OLIVE BRANCH   CLEAR     54  54 100 CALM      30.03F
OXFORD         FAIR      48  46  93 CALM      30.05S
TUNICA         SUNNY     54  52  94 CALM      30.04S FOG
$$

MSZ003>006-009-014>017-022>024-029>033-037>039-210800-
NORTHEAST MISSISSIPPI

CITY           SKY/WX    TMP DP  RH WIND       PRES   REMARKS
COLUMBUS AFB   CLEAR     49  49 100 N1        30.03F
CORINTH        FAIR      48  46  93 CALM      30.03S FOG
GOLDN TRIANGLE CLEAR     48  45  87 CALM      30.03S
STARKVILLE     FAIR      46  46 100 CALM      30.04S
TUPELO         CLEAR     52  49  89 CALM      30.03S
$$

MSZ040-058-210800-
CENTRAL MISSISSIPPI

CITY           SKY/WX    TMP DP  RH WIND       PRES   REMARKS
JACKSON INTL   CLEAR     50  49  96 CALM      30.04F
JACKSON HAWKNS CLEAR     54  50  86 CALM      30.04F
MERIDIAN KEY   CLEAR     50  48  93 CALM      30.04S
MERIDIAN NAS   CLEAR     51  49  92 CALM      30.04S
RAYMOND        FAIR      50  46  87 MISG      30.04F FOG
VICKSBURG      CLEAR     51  50  96 CALM      30.04F
$$

MSZ059>079-210800-
SOUTH MISSISSIPPI

CITY           SKY/WX    TMP DP  RH WIND       PRES   REMARKS
BROOKHAVEN     FAIR      52  52 100 CALM      30.05F
COLUMBIA         N/A    N/A N/A N/A MISG        N/A
HATTIESBURG    CLEAR     53  51  93 CALM      30.04R
MCCOMB         CLEAR     60  50  69 N5        30.03S
NATCHEZ        CLEAR     54  50  87 CALM      30.04S
PINE BELT      CLEAR     52  48  87 N3        30.04S
$$

MSZ080>082-210800-
COASTAL MISSISSIPPI

CITY           SKY/WX    TMP DP  RH WIND       PRES   REMARKS
BILOXI         CLEAR     59  52  78 N2        30.01S
PASCAGOULA     CLEAR     49  48  97 CALM      30.01S
GULFPORT       CLEAR     55  52  89 CALM      30.01S
$$



USA.gov is the U.S. government's official web portal to all federal, state and local government web resources and services.